QPF
0.00 0.00 0.00 0.01 0.01 0.01 0.02 0.02 0.01 0.00 0.00 0.01 0.01 0.01 0.01 0.00 0.00 0.00 0.00 0.00 0.00 0.00 0.00 0.00 0.01 0.01 0.01 0.01 0.01 0.01 0.01 0.01 0.01 0.02 0.02 0.02 0.03 0.03 0.02 0.03 0.03 0.03 0.03 0.04
0.00 0.00 0.00 0.00 0.00 0.01 0.01 0.01 0.01 0.00 0.00 0.01 0.01 0.00 0.01 0.00 0.00 0.00 0.01 0.01 0.01 0.00 0.00 0.01 0.01 0.01 0.01 0.01 0.01 0.01 0.01 0.01 0.01 0.01 0.01 0.02 0.02 0.02 0.02 0.02 0.02 0.03 0.03 0.03
0.01 0.00 0.01 0.01 0.00 0.00 0.00 0.00 0.00 0.00 0.00 0.01 0.00 0.00 0.00 0.00 0.01 0.01 0.01 0.01 0.00 0.00 0.00 0.00 0.00 0.00 0.01 0.01 0.01 0.01 0.01 0.01 0.01 0.01 0.01 0.01 0.01 0.01 0.01 0.01 0.01 0.01 0.01 0.02
0.02 0.01 0.01 0.00 0.00 0.00 0.00 0.00 0.00 0.00 0.00 0.00 0.00 0.00 0.00 0.00 0.01 0.01 0.01 0.01 0.00 0.00 0.00 0.00 0.00 0.00 0.01 0.01 0.01 0.01 0.01 0.01 0.01 0.01 0.01 0.01 0.00 0.00 0.00 0.00 0.00 0.00 0.01 0.01
0.02 0.01 0.00 0.00 0.00 0.00 0.00 0.00 0.00 0.00 0.00 0.01 0.00 0.00 0.00 0.00 0.00 0.00 0.00 0.00 0.00 0.00 0.00 0.00 0.00 0.00 0.00 0.00 0.00 0.00 0.00 0.00 0.00 0.01 0.01 0.01 0.01 0.00 0.00 0.00 0.00 0.00 0.00 0.01
0.03 0.02 0.01 0.00 0.00 0.00 0.00 0.00 0.01 0.01 0.01 0.01 0.01 0.00 0.00 0.00 0.00 0.00 0.00 0.00 0.00 0.00 0.00 0.00 0.00 0.00 0.00 0.00 0.00 0.00 0.00 0.00 0.00 0.01 0.01 0.01 0.01 0.01 0.00 0.00 0.00 0.00 0.00 0.00
0.03 0.02 0.00 0.00 0.00 0.01 0.01 0.01 0.01 0.01 0.01 0.01 0.00 0.00 0.00 0.00 0.00 0.00 0.00 0.00 0.00 0.00 0.00 0.00 0.00 0.00 0.01 0.00 0.00 0.00 0.00 0.00 0.00 0.01 0.01 0.01 0.01 0.01 0.01 0.00 0.00 0.00 0.00 0.01
0.02 0.02 0.01 0.00 0.00 0.01 0.01 0.01 0.01 0.00 0.00 0.00 0.00 0.00 0.00 0.00 0.00 0.00 0.00 0.00 0.00 0.00 0.00 0.01 0.01 0.01 0.01 0.00 0.00 0.00 0.01 0.01 0.00 0.00 0.01 0.01 0.01 0.01 0.01 0.01 0.01 0.01 0.01 0.01
0.01 0.01 0.01 0.00 0.00 0.01 0.01 0.00 0.00 0.00 0.00 0.00 0.00 0.00 0.00 0.00 0.00 0.00 0.00 0.00 0.00 0.00 0.00 0.00 0.00 0.00 0.00 0.00 0.00 0.00 0.00 0.00 0.00 0.01 0.01 0.01 0.01 0.01 0.01 0.01 0.02 0.02 0.01 0.01
0.02 0.01 0.01 0.01 0.01 0.01 0.01 0.00 0.00 0.00 0.00 0.00 0.00 0.00 0.00 0.00 0.00 0.00 0.00 0.00 0.00 0.00 0.00 0.00 0.00 0.00 0.00 0.00 0.00 0.00 0.01 0.01 0.01 0.01 0.01 0.01 0.01 0.01 0.01 0.01 0.02 0.03 0.03 0.03
0.01 0.01 0.01 0.00 0.00 0.00 0.00 0.00 0.00 0.00 0.00 0.00 0.00 0.00 0.00 0.00 0.00 0.00 0.00 0.00 0.00 0.00 0.00 0.00 0.00 0.00 0.00 0.00 0.00 0.00 0.01 0.01 0.01 0.01 0.01 0.01 0.01 0.01 0.02 0.02 0.02 0.03 0.03 0.04
0.01 0.01 0.00 0.00 0.00 0.00 0.00 0.00 0.00 0.00 0.00 0.00 0.00 0.00 0.00 0.00 0.00 0.00 0.00 0.00 0.00 0.00 0.00 0.00 0.00 0.00 0.00 0.00 0.00 0.01 0.01 0.01 0.01 0.01 0.01 0.01 0.01 0.01 0.01 0.02 0.02 0.02 0.02 0.02
0.01 0.01 0.01 0.00 0.00 0.00 0.00 0.00 0.00 0.00 0.00 0.00 0.00 0.00 0.00 0.00 0.00 0.00 0.00 0.00 0.01 0.01 0.00 0.00 0.00 0.00 0.00 0.01 0.01 0.01 0.01 0.01 0.01 0.01 0.01 0.01 0.01 0.01 0.01 0.01 0.01 0.01 0.01 0.01
0.01 0.01 0.01 0.01 0.00 0.00 0.00 0.00 0.00 0.00 0.00 0.00 0.00 0.00 0.00 0.00 0.00 0.00 0.00 0.01 0.01 0.01 0.01 0.01 0.01 0.01 0.01 0.01 0.01 0.01 0.01 0.01 0.01 0.01 0.01 0.01 0.01 0.01 0.01 0.01 0.01 0.01 0.01 0.01
0.00 0.01 0.01 0.00 0.00 0.00 0.00 0.00 0.00 0.00 0.00 0.00 0.00 0.00 0.00 0.00 0.00 0.00 0.00 0.00 0.01 0.01 0.01 0.01 0.01 0.01 0.01 0.01 0.01 0.01 0.01 0.01 0.01 0.01 0.01 0.01 0.01 0.01 0.01 0.01 0.01 0.01 0.01 0.01
0.00 0.00 0.00 0.00 0.00 0.00 0.00 0.00 0.00 0.00 0.00 0.00 0.00 0.00 0.00 0.01 0.01 0.01 0.01 0.01 0.01 0.01 0.01 0.01 0.01 0.01 0.01 0.01 0.01 0.01 0.01 0.01 0.01 0.01 0.01 0.00 0.01 0.01 0.01 0.01 0.01 0.01 0.01 0.01
0.01 0.01 0.01 0.01 0.00 0.00 0.00 0.00 0.00 0.00 0.00 0.00 0.00 0.00 0.00 0.01 0.01 0.01 0.00 0.00 0.00 0.00 0.01 0.01 0.01 0.01 0.01 0.01 0.02 0.02 0.02 0.02 0.01 0.01 0.01 0.01 0.01 0.01 0.01 0.01 0.01 0.01 0.01 0.01
0.01 0.01 0.01 0.01 0.01 0.01 0.00 0.00 0.00 0.00 0.00 0.00 0.01 0.01 0.01 0.00 0.00 0.00 0.00 0.00 0.00 0.00 0.00 0.00 0.01 0.01 0.01 0.01 0.02 0.02 0.02 0.01 0.01 0.01 0.01 0.01 0.01 0.01 0.01 0.01 0.01 0.01 0.01 0.01
0.01 0.01 0.01 0.01 0.01 0.00 0.00 0.00 0.00 0.00 0.00 0.00 0.00 0.00 0.00 0.00 0.00 0.00 0.00 0.00 0.00 0.00 0.00 0.00 0.00 0.01 0.01 0.01 0.02 0.02 0.02 0.01 0.01 0.01 0.01 0.01 0.01 0.01 0.01 0.01 0.01 0.01 0.01 0.00
0.01 0.00 0.00 0.00 0.00 0.00 0.00 0.00 0.00 0.00 0.00 0.00 0.00 0.00 0.00 0.00 0.00 0.00 0.00 0.00 0.00 0.00 0.00 0.00 0.00 0.00 0.01 0.01 0.02 0.02 0.02 0.02 0.01 0.01 0.01 0.01 0.01 0.01 0.01 0.01 0.01 0.01 0.01 0.01
0.00 0.00 0.00 0.00 0.00 0.00 0.00 0.00 0.00 0.00 0.00 0.00 0.00 0.00 0.00 0.00 0.00 0.00 0.00 0.00 0.00 0.00 0.00 0.00 0.00 0.00 0.01 0.01 0.01 0.02 0.02 0.01 0.01 0.01 0.01 0.01 0.01 0.01 0.01 0.01 0.01 0.01 0.01 0.01
0.00 0.00 0.00 0.00 0.00 0.00 0.00 0.00 0.00 0.00 0.00 0.00 0.00 0.00 0.00 0.00 0.00 0.00 0.00 0.00 0.00 0.01 0.01 0.00 0.00 0.01 0.01 0.01 0.01 0.01 0.02 0.02 0.01 0.01 0.01 0.02 0.02 0.02 0.02 0.02 0.01 0.01 0.01 0.01
0.01 0.01 0.01 0.01 0.01 0.01 0.01 0.00 0.00 0.00 0.00 0.00 0.00 0.00 0.00 0.00 0.00 0.00 0.01 0.00 0.01 0.01 0.01 0.01 0.01 0.01 0.01 0.01 0.01 0.01 0.01 0.02 0.02 0.02 0.02 0.02 0.02 0.02 0.02 0.02 0.02 0.02 0.02 0.02
0.01 0.01 0.01 0.01 0.01 0.01 0.01 0.01 0.01 0.01 0.00 0.00 0.00 0.00 0.00 0.00 0.00 0.00 0.00 0.00 0.00 0.01 0.01 0.01 0.01 0.01 0.01 0.01 0.00 0.01 0.01 0.01 0.02 0.02 0.02 0.02 0.02 0.02 0.02 0.02 0.02 0.02 0.02 0.02
0.01 0.01 0.01 0.01 0.01 0.01 0.01 0.01 0.01 0.00 0.00 0.00 0.00 0.00 0.00 0.00 0.00 0.00 0.00 0.00 0.00 0.00 0.00 0.00 0.00 0.00 0.00 0.00 0.00 0.01 0.01 0.01 0.01 0.02 0.02 0.02 0.02 0.02 0.02 0.02 0.02 0.02 0.02 0.02
0.01 0.01 0.01 0.01 0.01 0.01 0.01 0.01 0.01 0.00 0.00 0.00 0.00 0.00 0.00 0.00 0.00 0.00 0.00 0.00 0.00 0.00 0.00 0.00 0.00 0.00 0.00 0.00 0.01 0.01 0.01 0.01 0.01 0.01 0.02 0.02 0.02 0.02 0.02 0.02 0.02 0.02 0.02 0.02
0.00 0.01 0.01 0.01 0.01 0.01 0.01 0.01 0.01 0.01 0.00 0.00 0.00 0.00 0.00 0.00 0.00 0.00 0.00 0.00 0.00 0.00 0.00 0.00 0.00 0.00 0.00 0.01 0.01 0.01 0.01 0.01 0.01 0.01 0.01 0.01 0.01 0.02 0.02 0.02 0.02 0.02 0.02 0.02
MSLP
1028.90 1028.77 1028.59 1028.33 1027.98 1027.52 1026.90 1026.14 1025.23 1024.20 1023.10 1021.99 1020.94 1020.01 1019.24 1018.67 1018.27 1018.02 1017.87 1017.76 1017.64 1017.46 1017.20 1016.86 1016.46 1016.05 1015.67 1015.37 1015.17 1015.10 1015.13 1015.26 1015.43 1015.62 1015.79 1015.91 1015.97 1015.99 1015.96 1015.92 1015.87 1015.82 1015.78 1015.73
1028.98 1028.67 1028.26 1027.77 1027.19 1026.54 1025.81 1025.01 1024.15 1023.26 1022.36 1021.50 1020.71 1020.03 1019.47 1019.05 1018.76 1018.56 1018.43 1018.31 1018.16 1017.96 1017.69 1017.35 1016.96 1016.56 1016.18 1015.85 1015.62 1015.48 1015.42 1015.45 1015.51 1015.60 1015.67 1015.72 1015.73 1015.71 1015.66 1015.61 1015.57 1015.53 1015.50 1015.46
1029.05 1028.54 1027.90 1027.17 1026.38 1025.55 1024.73 1023.92 1023.14 1022.40 1021.71 1021.09 1020.55 1020.09 1019.73 1019.45 1019.24 1019.08 1018.95 1018.81 1018.64 1018.42 1018.14 1017.81 1017.44 1017.05 1016.67 1016.33 1016.05 1015.83 1015.69 1015.60 1015.55 1015.52 1015.50 1015.48 1015.43 1015.38 1015.33 1015.27 1015.23 1015.20 1015.17 1015.12
1029.07 1028.34 1027.47 1026.52 1025.55 1024.61 1023.73 1022.95 1022.27 1021.69 1021.21 1020.81 1020.49 1020.22 1020.01 1019.83 1019.67 1019.52 1019.37 1019.20 1019.00 1018.76 1018.47 1018.15 1017.80 1017.42 1017.05 1016.69 1016.37 1016.08 1015.84 1015.65 1015.49 1015.36 1015.25 1015.15 1015.07 1014.99 1014.93 1014.87 1014.83 1014.80 1014.76 1014.70
1028.94 1028.02 1026.95 1025.83 1024.73 1023.72 1022.84 1022.12 1021.57 1021.16 1020.88 1020.68 1020.54 1020.42 1020.30 1020.17 1020.02 1019.84 1019.64 1019.41 1019.17 1018.90 1018.60 1018.29 1017.95 1017.60 1017.23 1016.86 1016.50 1016.15 1015.83 1015.54 1015.28 1015.06 1014.88 1014.73 1014.61 1014.51 1014.45 1014.40 1014.36 1014.32 1014.27 1014.20
1028.58 1027.50 1026.30 1025.07 1023.92 1022.91 1022.09 1021.48 1021.07 1020.84 1020.74 1020.70 1020.70 1020.67 1020.59 1020.46 1020.26 1020.02 1019.73 1019.43 1019.12 1018.80 1018.49 1018.18 1017.86 1017.52 1017.17 1016.79 1016.41 1016.01 1015.62 1015.26 1014.92 1014.62 1014.38 1014.18 1014.04 1013.94 1013.87 1013.83 1013.79 1013.75 1013.70 1013.60
1027.92 1026.75 1025.49 1024.25 1023.12 1022.18 1021.48 1021.02 1020.78 1020.72 1020.77 1020.86 1020.94 1020.95 1020.86 1020.67 1020.39 1020.03 1019.64 1019.23 1018.84 1018.47 1018.13 1017.82 1017.51 1017.19 1016.85 1016.49 1016.08 1015.66 1015.23 1014.80 1014.41 1014.05 1013.76 1013.54 1013.37 1013.27 1013.20 1013.17 1013.14 1013.10 1013.04 1012.93
1026.97 1025.80 1024.56 1023.39 1022.37 1021.57 1021.03 1020.74 1020.67 1020.76 1020.93 1021.11 1021.22 1021.21 1021.07 1020.78 1020.38 1019.90 1019.38 1018.86 1018.37 1017.95 1017.57 1017.25 1016.95 1016.65 1016.34 1015.98 1015.58 1015.14 1014.68 1014.22 1013.78 1013.39 1013.07 1012.82 1012.64 1012.53 1012.47 1012.44 1012.42 1012.38 1012.31 1012.19
1025.81 1024.70 1023.58 1022.55 1021.70 1021.09 1020.73 1020.62 1020.71 1020.92 1021.17 1021.38 1021.48 1021.42 1021.18 1020.78 1020.24 1019.62 1018.97 1018.34 1017.77 1017.28 1016.88 1016.54 1016.25 1015.98 1015.68 1015.34 1014.95 1014.51 1014.04 1013.57 1013.11 1012.70 1012.35 1012.08 1011.90 1011.78 1011.72 1011.68 1011.66 1011.62 1011.54 1011.43
1024.56 1023.60 1022.66 1021.82 1021.17 1020.76 1020.59 1020.64 1020.84 1021.13 1021.41 1021.61 1021.65 1021.50 1021.16 1020.63 1019.96 1019.21 1018.44 1017.72 1017.08 1016.54 1016.11 1015.77 1015.49 1015.23 1014.96 1014.64 1014.27 1013.85 1013.38 1012.90 1012.44 1012.02 1011.66 1011.38 1011.18 1011.05 1010.98 1010.93 1010.90 1010.85 1010.78 1010.66
1023.41 1022.63 1021.90 1021.28 1020.83 1020.61 1020.59 1020.75 1021.01 1021.32 1021.58 1021.72 1021.68 1021.42 1020.96 1020.31 1019.53 1018.68 1017.83 1017.04 1016.35 1015.78 1015.34 1014.99 1014.72 1014.48 1014.23 1013.93 1013.59 1013.18 1012.74 1012.27 1011.81 1011.39 1011.03 1010.74 1010.53 1010.38 1010.29 1010.22 1010.17 1010.11 1010.02 1009.90
1022.50 1021.93 1021.40 1020.98 1020.71 1020.62 1020.70 1020.90 1021.16 1021.43 1021.61 1021.65 1021.50 1021.13 1020.56 1019.82 1018.96 1018.05 1017.15 1016.33 1015.61 1015.03 1014.58 1014.24 1013.97 1013.74 1013.51 1013.24 1012.91 1012.54 1012.12 1011.68 1011.24 1010.83 1010.47 1010.18 1009.95 1009.78 1009.66 1009.57 1009.49 1009.41 1009.30 1009.17
1021.94 1021.55 1021.19 1020.93 1020.78 1020.77 1020.87 1021.04 1021.24 1021.40 1021.47 1021.38 1021.10 1020.63 1019.97 1019.17 1018.27 1017.33 1016.43 1015.60 1014.89 1014.31 1013.86 1013.51 1013.24 1013.01 1012.79 1012.53 1012.23 1011.89 1011.50 1011.09 1010.68 1010.30 1009.95 1009.66 1009.42 1009.24 1009.09 1008.96 1008.85 1008.73 1008.60 1008.45
1021.73 1021.48 1021.26 1021.09 1021.00 1020.99 1021.05 1021.13 1021.21 1021.23 1021.14 1020.91 1020.51 1019.94 1019.22 1018.39 1017.48 1016.56 1015.67 1014.87 1014.17 1013.60 1013.14 1012.79 1012.51 1012.27 1012.03 1011.78 1011.50 1011.18 1010.83 1010.46 1010.09 1009.74 1009.42 1009.14 1008.90 1008.70 1008.53 1008.37 1008.22 1008.07 1007.91 1007.74
1021.81 1021.66 1021.52 1021.39 1021.30 1021.23 1021.19 1021.13 1021.05 1020.89 1020.64 1020.27 1019.77 1019.13 1018.37 1017.54 1016.65 1015.77 1014.92 1014.14 1013.47 1012.90 1012.43 1012.05 1011.74 1011.46 1011.21 1010.94 1010.67 1010.37 1010.05 1009.73 1009.41 1009.10 1008.82 1008.57 1008.34 1008.13 1007.94 1007.76 1007.58 1007.40 1007.22 1007.03
1022.07 1021.98 1021.86 1021.72 1021.58 1021.42 1021.23 1021.02 1020.76 1020.43 1020.03 1019.53 1018.93 1018.25 1017.49 1016.67 1015.83 1014.99 1014.19 1013.45 1012.78 1012.20 1011.70 1011.28 1010.91 1010.59 1010.29 1010.00 1009.71 1009.43 1009.14 1008.86 1008.60 1008.34 1008.10 1007.88 1007.68 1007.49 1007.30 1007.11 1006.92 1006.72 1006.52 1006.33
1022.38 1022.31 1022.18 1022.00 1021.77 1021.49 1021.17 1020.79 1020.36 1019.88 1019.34 1018.74 1018.09 1017.38 1016.63 1015.85 1015.06 1014.27 1013.51 1012.79 1012.13 1011.52 1010.97 1010.48 1010.04 1009.64 1009.28 1008.95 1008.64 1008.36 1008.10 1007.86 1007.64 1007.44 1007.26 1007.08 1006.92 1006.75 1006.58 1006.40 1006.22 1006.03 1005.84 1005.65
1022.63 1022.55 1022.39 1022.15 1021.84 1021.44 1020.98 1020.46 1019.89 1019.28 1018.64 1017.97 1017.28 1016.57 1015.85 1015.11 1014.37 1013.63 1012.90 1012.19 1011.51 1010.86 1010.24 1009.67 1009.14 1008.66 1008.22 1007.84 1007.50 1007.21 1006.96 1006.75 1006.58 1006.43 1006.30 1006.18 1006.06 1005.93 1005.80 1005.66 1005.50 1005.34 1005.18 1005.03
1022.76 1022.65 1022.45 1022.16 1021.76 1021.26 1020.69 1020.05 1019.38 1018.68 1017.97 1017.27 1016.57 1015.87 1015.18 1014.49 1013.79 1013.08 1012.37 1011.66 1010.94 1010.23 1009.55 1008.88 1008.26 1007.69 1007.18 1006.73 1006.35 1006.04 1005.80 1005.61 1005.47 1005.37 1005.29 1005.22 1005.15 1005.08 1005.00 1004.90 1004.80 1004.69 1004.58 1004.48
1022.75 1022.62 1022.39 1022.04 1021.56 1020.99 1020.33 1019.62 1018.87 1018.12 1017.38 1016.66 1015.96 1015.28 1014.62 1013.97 1013.30 1012.62 1011.91 1011.18 1010.43 1009.66 1008.90 1008.16 1007.45 1006.80 1006.21 1005.71 1005.29 1004.95 1004.70 1004.52 1004.41 1004.34 1004.30 1004.27 1004.26 1004.24 1004.21 1004.18 1004.14 1004.10 1004.06 1004.03
1022.67 1022.52 1022.25 1021.85 1021.32 1020.69 1019.97 1019.20 1018.41 1017.63 1016.87 1016.14 1015.46 1014.80 1014.17 1013.53 1012.89 1012.22 1011.50 1010.75 1009.97 1009.15 1008.33 1007.52 1006.74 1006.02 1005.37 1004.82 1004.36 1004.00 1003.74 1003.56 1003.45 1003.40 1003.39 1003.40 1003.43 1003.46 1003.49 1003.52 1003.55 1003.58 1003.62 1003.66
1022.57 1022.39 1022.09 1021.65 1021.08 1020.40 1019.64 1018.84 1018.02 1017.22 1016.45 1015.73 1015.05 1014.40 1013.78 1013.16 1012.52 1011.85 1011.13 1010.36 1009.54 1008.69 1007.83 1006.97 1006.15 1005.38 1004.70 1004.11 1003.62 1003.24 1002.96 1002.77 1002.66 1002.61 1002.61 1002.64 1002.70 1002.77 1002.85 1002.93 1003.03 1003.13 1003.24 1003.36
1022.52 1022.31 1021.97 1021.49 1020.89 1020.17 1019.38 1018.56 1017.72 1016.91 1016.13 1015.40 1014.72 1014.08 1013.46 1012.83 1012.19 1011.51 1010.78 1009.99 1009.15 1008.28 1007.40 1006.52 1005.67 1004.88 1004.17 1003.56 1003.06 1002.65 1002.35 1002.14 1002.02 1001.96 1001.96 1001.99 1002.06 1002.16 1002.28 1002.41 1002.56 1002.72 1002.90 1003.08
1022.55 1022.31 1021.93 1021.41 1020.76 1020.02 1019.21 1018.36 1017.51 1016.69 1015.90 1015.16 1014.47 1013.82 1013.18 1012.54 1011.88 1011.18 1010.44 1009.64 1008.79 1007.91 1007.02 1006.14 1005.29 1004.50 1003.78 1003.16 1002.64 1002.22 1001.89 1001.66 1001.51 1001.43 1001.41 1001.44 1001.51 1001.62 1001.76 1001.92 1002.11 1002.32 1002.55 1002.78
1022.65 1022.36 1021.94 1021.38 1020.71 1019.94 1019.11 1018.25 1017.39 1016.55 1015.76 1015.00 1014.30 1013.62 1012.96 1012.29 1011.61 1010.88 1010.12 1009.31 1008.46 1007.58 1006.69 1005.81 1004.97 1004.18 1003.47 1002.84 1002.31 1001.87 1001.53 1001.27 1001.09 1000.98 1000.93 1000.94 1001.00 1001.11 1001.25 1001.44 1001.65 1001.89 1002.16 1002.43
1022.78 1022.45 1021.98 1021.39 1020.68 1019.90 1019.06 1018.20 1017.33 1016.49 1015.69 1014.92 1014.19 1013.48 1012.79 1012.09 1011.38 1010.63 1009.84 1009.01 1008.15 1007.27 1006.39 1005.52 1004.69 1003.91 1003.20 1002.57 1002.02 1001.56 1001.19 1000.90 1000.68 1000.54 1000.46 1000.44 1000.48 1000.58 1000.73 1000.92 1001.15 1001.42 1001.71 1002.01
1022.89 1022.50 1021.99 1021.37 1020.66 1019.87 1019.03 1018.17 1017.32 1016.48 1015.67 1014.89 1014.15 1013.42 1012.69 1011.96 1011.21 1010.42 1009.61 1008.76 1007.89 1007.00 1006.12 1005.26 1004.43 1003.65 1002.93 1002.29 1001.72 1001.24 1000.84 1000.51 1000.26 1000.07 999.96 999.92 999.94 1000.02 1000.16 1000.36 1000.60 1000.88 1001.20 1001.53
Thickness
5412 5419 5420 5421 5423 5418 5416 5417 5417 5426 5427 5440 5437 5434 5431 5429 5428 5427 5426 5425 5425 5423 5421 5421 5421 5422 5423 5424 5426 5427 5428 5429 5430 5432 5434 5436 5437 5438 5439 5440 5442 5443 5444 5446
5402 5408 5410 5413 5418 5416 5415 5414 5412 5416 5421 5429 5426 5422 5420 5418 5418 5418 5416 5415 5415 5414 5413 5412 5411 5411 5412 5413 5415 5416 5417 5418 5420 5421 5422 5424 5425 5426 5426 5427 5429 5430 5431 5433
5391 5395 5400 5403 5411 5412 5411 5410 5409 5413 5422 5418 5414 5414 5412 5411 5409 5408 5407 5407 5405 5404 5404 5402 5402 5402 5402 5403 5404 5405 5407 5408 5409 5410 5411 5412 5413 5414 5414 5415 5416 5417 5419 5420
5377 5382 5387 5413 5407 5407 5407 5407 5405 5408 5410 5408 5407 5406 5404 5402 5400 5399 5399 5398 5397 5395 5394 5393 5393 5392 5393 5393 5394 5395 5396 5397 5398 5399 5400 5401 5402 5403 5403 5404 5404 5405 5406 5408
5366 5370 5384 5402 5402 5398 5396 5399 5400 5399 5400 5399 5396 5396 5396 5397 5395 5393 5391 5389 5388 5387 5386 5385 5384 5384 5384 5384 5384 5385 5386 5387 5388 5388 5389 5391 5391 5391 5392 5392 5393 5393 5395 5396
5361 5369 5377 5401 5395 5391 5392 5392 5395 5391 5391 5388 5387 5386 5390 5389 5386 5384 5382 5381 5379 5378 5377 5376 5376 5376 5375 5376 5376 5376 5377 5378 5378 5379 5379 5380 5380 5380 5381 5381 5382 5382 5384 5385
5360 5362 5376 5386 5383 5385 5383 5391 5387 5383 5382 5379 5378 5380 5381 5378 5376 5375 5374 5372 5371 5370 5369 5369 5368 5368 5367 5367 5368 5369 5369 5369 5369 5370 5369 5369 5370 5370 5370 5370 5371 5371 5373 5374
5353 5357 5373 5378 5375 5375 5379 5378 5376 5374 5371 5369 5368 5368 5369 5368 5367 5366 5364 5364 5363 5362 5361 5361 5360 5360 5360 5360 5360 5360 5360 5360 5360 5360 5360 5360 5359 5360 5360 5360 5360 5361 5362 5364
5361 5370 5372 5368 5369 5370 5368 5367 5367 5365 5363 5361 5359 5358 5359 5359 5358 5357 5356 5355 5354 5353 5353 5352 5352 5352 5352 5352 5352 5352 5352 5352 5351 5351 5350 5350 5349 5350 5350 5350 5350 5352 5353 5354
5350 5358 5361 5361 5360 5360 5359 5358 5358 5357 5355 5353 5351 5350 5350 5349 5348 5348 5348 5347 5346 5345 5344 5345 5345 5345 5345 5345 5345 5345 5344 5344 5343 5342 5342 5341 5341 5341 5341 5341 5341 5343 5344 5346
5345 5352 5354 5358 5355 5354 5352 5350 5349 5348 5347 5345 5344 5343 5341 5340 5340 5339 5340 5339 5338 5337 5338 5338 5338 5338 5338 5337 5337 5337 5336 5336 5335 5334 5333 5332 5332 5332 5332 5333 5333 5335 5336 5337
5350 5352 5348 5351 5350 5348 5344 5342 5340 5339 5338 5338 5337 5335 5334 5332 5332 5332 5332 5331 5331 5330 5330 5330 5330 5330 5330 5330 5330 5329 5329 5329 5328 5326 5325 5325 5324 5325 5325 5326 5328 5329 5330 5330
5346 5345 5343 5343 5342 5340 5337 5335 5333 5332 5331 5329 5329 5327 5326 5325 5325 5324 5324 5324 5324 5323 5323 5322 5322 5322 5322 5322 5322 5321 5321 5320 5319 5319 5318 5317 5317 5317 5317 5319 5320 5321 5322 5324
5337 5336 5335 5335 5334 5332 5329 5327 5325 5324 5323 5322 5321 5320 5318 5317 5317 5317 5317 5317 5317 5316 5316 5315 5315 5315 5315 5315 5314 5314 5314 5314 5313 5311 5310 5310 5309 5309 5309 5310 5311 5312 5314 5315
5330 5329 5328 5327 5325 5323 5321 5318 5316 5315 5314 5313 5313 5312 5311 5310 5310 5310 5310 5311 5310 5309 5309 5309 5309 5309 5309 5308 5308 5308 5308 5307 5306 5305 5304 5303 5303 5302 5302 5302 5303 5304 5306 5307
5323 5321 5320 5318 5317 5315 5312 5310 5309 5308 5307 5306 5305 5305 5304 5304 5303 5303 5303 5303 5302 5303 5303 5303 5303 5303 5303 5302 5302 5302 5301 5301 5300 5299 5298 5297 5296 5296 5296 5296 5296 5297 5298 5300
5315 5315 5314 5312 5311 5309 5306 5304 5304 5303 5301 5300 5299 5299 5298 5297 5296 5296 5297 5296 5296 5296 5297 5297 5297 5297 5296 5296 5295 5295 5295 5295 5294 5293 5291 5291 5290 5289 5289 5289 5290 5291 5292 5293
5312 5312 5310 5308 5306 5304 5302 5300 5299 5298 5296 5296 5294 5293 5292 5291 5291 5291 5290 5290 5290 5290 5291 5291 5291 5291 5291 5290 5289 5289 5289 5289 5288 5286 5285 5284 5284 5283 5283 5284 5284 5284 5285 5286
5307 5306 5304 5303 5302 5300 5297 5295 5294 5293 5292 5290 5289 5287 5286 5285 5285 5284 5284 5283 5284 5285 5286 5285 5286 5285 5285 5285 5285 5284 5283 5283 5282 5280 5279 5279 5278 5277 5277 5277 5278 5278 5279 5279
5301 5300 5299 5298 5296 5294 5292 5291 5289 5287 5286 5285 5284 5282 5281 5281 5280 5279 5278 5278 5279 5280 5280 5280 5280 5280 5279 5279 5280 5279 5278 5277 5276 5275 5274 5273 5272 5272 5272 5272 5272 5273 5273 5273
5295 5294 5293 5291 5290 5288 5287 5285 5283 5282 5282 5281 5279 5278 5277 5276 5275 5274 5274 5275 5276 5276 5276 5277 5276 5275 5275 5275 5275 5274 5273 5272 5271 5270 5269 5268 5268 5267 5267 5267 5267 5268 5268 5269
5288 5288 5286 5285 5283 5281 5280 5279 5278 5277 5276 5275 5275 5273 5272 5271 5271 5270 5270 5270 5271 5272 5272 5271 5271 5271 5271 5271 5270 5268 5267 5266 5266 5265 5264 5264 5263 5263 5263 5263 5263 5263 5264 5264
5282 5281 5280 5278 5277 5275 5274 5273 5273 5272 5271 5271 5270 5269 5268 5268 5267 5266 5267 5267 5267 5268 5267 5267 5267 5268 5268 5266 5264 5263 5262 5261 5261 5260 5260 5259 5259 5258 5258 5259 5259 5260 5260 5260
5277 5275 5274 5272 5270 5269 5268 5268 5267 5267 5266 5266 5265 5265 5264 5263 5263 5263 5263 5264 5264 5264 5262 5263 5263 5263 5262 5260 5259 5258 5257 5257 5257 5256 5256 5256 5255 5255 5255 5255 5256 5256 5257 5257
5271 5269 5267 5266 5265 5265 5264 5264 5263 5262 5261 5261 5261 5261 5260 5260 5259 5259 5258 5258 5259 5259 5257 5257 5258 5258 5256 5254 5253 5253 5253 5253 5253 5253 5253 5252 5252 5252 5252 5253 5253 5254 5254 5255
5264 5263 5262 5261 5261 5260 5260 5260 5259 5259 5258 5257 5257 5257 5256 5256 5255 5254 5254 5254 5254 5254 5252 5251 5251 5251 5250 5250 5249 5249 5249 5249 5249 5249 5249 5249 5249 5249 5250 5251 5251 5252 5252 5253
5258 5257 5257 5257 5257 5256 5256 5255 5255 5255 5254 5254 5253 5253 5252 5251 5250 5250 5249 5249 5248 5248 5247 5246 5246 5246 5245 5245 5245 5245 5245 5245 5245 5245 5246 5246 5247 5247 5248 5249 5250 5250 5251 5252